#�ϑ�����,���ϕ���,���ϕ���,�ő啗��,�ő啗����������,�ő�u�ԕ���,�ő�u�ԕ�����������
#(�N����),(m/s)   ,(16����),(m/s)   ,(16����)        ,(m/s)       ,(16����)            
2016/9/10 0:01,1.1,16,1.1,16,0.5,16
2016/9/10 0:02,0.9,16,1,16,0.5,16
2016/9/10 0:03,0.9,16,0.9,16,1.4,1
2016/9/10 0:04,0.9,16,0.9,16,1.9,1
2016/9/10 0:05,0.9,16,0.9,16,2.1,16
2016/9/10 0:06,0.9,16,0.9,16,2.7,15
2016/9/10 0:07,1,16,1,16,2.6,15
2016/9/10 0:08,1,16,1,16,1.8,15
2016/9/10 0:09,1,16,1,16,1.1,14
2016/9/10 0:10,1,16,1,16,1.5,15
2016/9/10 0:11,1.1,15,1.1,15,3.2,16
2016/9/10 0:12,1.3,15,1.3,15,2.1,16
2016/9/10 0:13,1.3,15,1.3,15,2,16
2016/9/10 0:14,1.3,15,1.3,15,1.6,1
2016/9/10 0:15,1.2,16,1.3,15,0.8,1
2016/9/10 0:16,1.2,16,1.2,15,2.5,16
2016/9/10 0:17,1.2,16,1.2,15,2.7,16
2016/9/10 0:18,1.2,16,1.2,15,2.4,2
2016/9/10 0:19,1.3,1,1.3,15,1.6,3
2016/9/10 0:20,1.3,1,1.3,15,1.9,3
2016/9/10 0:21,1.3,1,1.3,15,1.9,3
2016/9/10 0:22,1.2,2,1.3,15,1.3,3
2016/9/10 0:23,1.2,2,1.2,15,1.3,4
2016/9/10 0:24,1.2,2,1.2,16,1.3,16
2016/9/10 0:25,1.2,2,1.2,16,1.3,16
2016/9/10 0:26,1.1,2,1.2,16,1.1,15
2016/9/10 0:27,1,2,1.1,16,1.3,1
2016/9/10 0:28,1,1,1,16,2.2,1
2016/9/10 0:29,1.1,1,1.1,1,2.2,16
2016/9/10 0:30,1,1,1.1,1,1.6,1
2016/9/10 0:31,1.1,1,1.1,1,2.1,15
2016/9/10 0:32,1.1,16,1.1,2,2,16
2016/9/10 0:33,1.2,16,1.2,2,2.4,1
2016/9/10 0:34,1.4,16,1.4,16,2.7,16
2016/9/10 0:35,1.4,16,1.4,16,2.4,1
2016/9/10 0:36,1.5,16,1.5,16,1.9,15
2016/9/10 0:37,1.6,16,1.6,16,2.4,16
2016/9/10 0:38,1.5,16,1.6,16,1.8,16
2016/9/10 0:39,1.5,16,1.5,16,2.7,16
2016/9/10 0:40,1.6,16,1.6,16,2.6,16
2016/9/10 0:41,1.7,16,1.7,16,2.7,16
2016/9/10 0:42,1.6,16,1.7,16,1.6,2
2016/9/10 0:43,1.5,16,1.6,16,1.4,1
2016/9/10 0:44,1.4,16,1.5,16,1.1,2
2016/9/10 0:45,1.3,1,1.4,16,1,1
2016/9/10 0:46,1.2,1,1.3,16,0.6,4
2016/9/10 0:47,1,1,1.2,16,0.5,1
2016/9/10 0:48,1,1,1,16,0.8,16
2016/9/10 0:49,0.8,1,0.9,16,0.1,4
2016/9/10 0:50,0.6,2,0.7,16,0.5,2
2016/9/10 0:51,0.4,2,0.6,16,0.1,16
2016/9/10 0:52,0.3,2,0.4,16,0.5,1
2016/9/10 0:53,0.3,2,0.3,16,0.5,1
2016/9/10 0:54,0.3,1,0.3,16,0.8,16
2016/9/10 0:55,0.3,1,0.3,1,1,15
2016/9/10 0:56,0.3,1,0.3,1,0.8,15
2016/9/10 0:57,0.3,1,0.3,1,0.1,1
2016/9/10 0:58,0.2,1,0.3,1,0.4,1
2016/9/10 0:59,0.3,1,0.3,2,1,1
2016/9/10 1:00,0.3,1,0.3,2,1,16
2016/9/10 1:01,0.3,1,0.3,2,0.1,2
2016/9/10 1:02,0.3,1,0.3,2,0.3,4
2016/9/10 1:03,0.3,2,0.3,1,0.1,4
2016/9/10 1:04,0.2,2,0.3,1,0.1,5
2016/9/10 1:05,0.2,2,0.2,1,1,13
2016/9/10 1:06,0.2,1,0.2,1,1,15
2016/9/10 1:07,0.3,1,0.3,1,1.8,15
2016/9/10 1:08,0.4,1,0.4,1,1.8,16
2016/9/10 1:09,0.5,1,0.5,1,2.5,16
2016/9/10 1:10,0.6,16,0.6,16,2.1,16
2016/9/10 1:11,0.6,16,0.6,16,0.5,2
2016/9/10 1:12,0.7,16,0.7,16,1.8,1
2016/9/10 1:13,0.8,15,0.8,15,1.8,16
2016/9/10 1:14,0.9,16,0.9,15,0.9,16
2016/9/10 1:15,0.9,16,0.9,15,0.8,14
2016/9/10 1:16,0.9,16,0.9,15,0.9,15
2016/9/10 1:17,0.8,16,0.9,15,0.3,1
2016/9/10 1:18,0.7,16,0.8,15,1,8
2016/9/10 1:19,0.7,16,0.7,15,1.5,8
2016/9/10 1:20,0.7,16,0.7,15,1.8,9
2016/9/10 1:21,0.7,16,0.7,15,1,9
2016/9/10 1:22,0.6,16,0.7,15,0.3,16
2016/9/10 1:23,0.5,16,0.5,15,0.3,16
2016/9/10 1:24,0.4,15,0.5,16,0.1,15
2016/9/10 1:25,0.4,14,0.4,16,0.1,14
2016/9/10 1:26,0.3,13,0.4,16,0.1,14
2016/9/10 1:27,0.4,12,0.4,16,0.6,12
2016/9/10 1:28,0.4,12,0.4,16,1,10
2016/9/10 1:29,0.3,12,0.4,16,0.6,9
2016/9/10 1:30,0.2,12,0.3,16,0.9,5
2016/9/10 1:31,0.2,13,0.2,16,1,5
2016/9/10 1:32,0.2,12,0.2,16,0.1,6
2016/9/10 1:33,0.2,11,0.2,16,0,9
2016/9/10 1:34,0.2,10,0.2,15,0,9
2016/9/10 1:35,0.2,9,0.2,14,0,9
2016/9/10 1:36,0.2,9,0.2,12,0,9
2016/9/10 1:37,0.2,9,0.2,12,0,3
2016/9/10 1:38,0.2,8,0.2,12,1.1,3
2016/9/10 1:39,0.2,7,0.2,12,1.3,3
2016/9/10 1:40,0.3,6,0.3,7,1.4,2
2016/9/10 1:41,0.3,5,0.3,7,0.8,1
2016/9/10 1:42,0.3,3,0.3,7,0,4
2016/9/10 1:43,0.3,3,0.3,7,0.1,2
2016/9/10 1:44,0.3,2,0.3,7,0.6,1
2016/9/10 1:45,0.3,2,0.3,7,0.1,1
2016/9/10 1:46,0.3,2,0.3,7,0.1,1
2016/9/10 1:47,0.3,2,0.3,7,0.3,16
2016/9/10 1:48,0.3,1,0.3,7,0.8,16
2016/9/10 1:49,0.2,1,0.3,7,0.9,16
2016/9/10 1:50,0.2,1,0.2,6,1.3,1
2016/9/10 1:51,0.3,1,0.3,5,1,1
2016/9/10 1:52,0.3,1,0.3,3,0.8,16
2016/9/10 1:53,0.4,16,0.4,16,0.8,16
2016/9/10 1:54,0.4,16,0.4,16,0.9,1
2016/9/10 1:55,0.5,16,0.5,16,1.5,1
2016/9/10 1:56,0.6,16,0.6,16,1.5,2
2016/9/10 1:57,0.7,16,0.7,16,1.8,2
2016/9/10 1:58,0.8,16,0.8,16,1.8,15
2016/9/10 1:59,0.8,16,0.8,16,1.6,1
2016/9/10 2:00,0.9,16,0.9,16,1.1,15
2016/9/10 2:01,0.8,16,0.9,16,0.9,1
2016/9/10 2:02,0.8,16,0.8,16,0.5,14
2016/9/10 2:03,0.8,16,0.8,16,0.8,16
2016/9/10 2:04,0.8,16,0.8,16,0.8,16
2016/9/10 2:05,0.7,16,0.8,16,1.3,1
2016/9/10 2:06,0.7,16,0.7,16,1.3,16
2016/9/10 2:07,0.7,16,0.7,16,1.3,16
2016/9/10 2:08,0.6,16,0.7,16,1.4,16
2016/9/10 2:09,0.6,16,0.6,16,1.9,16
2016/9/10 2:10,0.6,16,0.6,16,1.9,16
2016/9/10 2:11,0.6,16,0.6,16,1,1
2016/9/10 2:12,0.7,16,0.7,16,1.1,16
2016/9/10 2:13,0.7,16,0.7,16,0.3,13
2016/9/10 2:14,0.6,16,0.7,16,0.6,15
2016/9/10 2:15,0.6,16,0.6,16,1.3,15
2016/9/10 2:16,0.6,16,0.6,16,1.1,14
2016/9/10 2:17,0.6,15,0.6,16,0.6,16
2016/9/10 2:18,0.5,15,0.6,16,0.5,14
2016/9/10 2:19,0.5,15,0.5,16,0.5,15
2016/9/10 2:20,0.4,15,0.5,16,0.6,16
2016/9/10 2:21,0.4,15,0.4,16,0.8,1
2016/9/10 2:22,0.4,15,0.4,16,1.3,4
2016/9/10 2:23,0.4,16,0.4,16,0.9,4
2016/9/10 2:24,0.5,1,0.5,16,0.9,3
2016/9/10 2:25,0.4,1,0.5,16,0.9,2
2016/9/10 2:26,0.5,1,0.5,16,1.5,16
2016/9/10 2:27,0.6,1,0.6,15,2.1,1
2016/9/10 2:28,0.7,1,0.7,1,2.4,16
2016/9/10 2:29,0.8,1,0.8,1,1.5,16
2016/9/10 2:30,0.8,1,0.8,1,0.9,15
2016/9/10 2:31,0.9,1,0.9,1,1.5,15
2016/9/10 2:32,0.9,16,0.9,1,1.8,15
2016/9/10 2:33,0.9,16,0.9,1,0.8,15
2016/9/10 2:34,0.8,16,0.9,1,0.8,4
2016/9/10 2:35,0.8,16,0.8,1,0.1,6
2016/9/10 2:36,0.7,16,0.8,1,1,3
2016/9/10 2:37,0.7,1,0.7,1,1.8,2
2016/9/10 2:38,0.7,1,0.7,1,1.8,1
2016/9/10 2:39,0.7,1,0.7,1,1.6,1
2016/9/10 2:40,0.7,1,0.7,1,1.1,1
2016/9/10 2:41,0.7,1,0.7,1,1.4,1
2016/9/10 2:42,0.7,2,0.7,16,1,16
2016/9/10 2:43,0.6,2,0.7,16,0.3,2
2016/9/10 2:44,0.6,2,0.6,16,0.1,6
2016/9/10 2:45,0.6,2,0.6,16,0.1,6
2016/9/10 2:46,0.6,3,0.6,16,0,6
2016/9/10 2:47,0.5,3,0.6,1,0.9,12
2016/9/10 2:48,0.5,3,0.5,1,1.4,13
2016/9/10 2:49,0.5,3,0.5,1,1.4,13
2016/9/10 2:50,0.5,2,0.5,1,1.3,13
2016/9/10 2:51,0.4,13,0.5,1,0.5,13
2016/9/10 2:52,0.4,10,0.4,2,0.5,6
2016/9/10 2:53,0.4,9,0.4,2,1,7
2016/9/10 2:54,0.5,10,0.5,2,1,8
2016/9/10 2:55,0.6,11,0.6,2,1.5,12
2016/9/10 2:56,0.7,11,0.7,11,1.5,12
2016/9/10 2:57,0.9,12,0.9,12,2,12
2016/9/10 2:58,0.9,12,0.9,12,2,13
2016/9/10 2:59,0.9,12,0.9,12,2.2,12
2016/9/10 3:00,1,11,1,12,2,12
2016/9/10 3:01,1.2,11,1.2,11,2.2,12
2016/9/10 3:02,1.4,11,1.4,11,2.1,12
2016/9/10 3:03,1.5,12,1.5,12,1.9,12
2016/9/10 3:04,1.6,12,1.6,12,1.6,12
2016/9/10 3:05,1.6,12,1.6,12,1.8,12
2016/9/10 3:06,1.6,12,1.6,12,1.6,11
2016/9/10 3:07,1.5,12,1.6,12,1.4,12
2016/9/10 3:08,1.5,12,1.5,12,1.5,11
2016/9/10 3:09,1.4,12,1.5,12,1.6,12
2016/9/10 3:10,1.4,12,1.4,12,1.8,11
2016/9/10 3:11,1.3,12,1.4,12,1.6,11
2016/9/10 3:12,1.2,12,1.3,12,1.1,12
2016/9/10 3:13,1,11,1.2,12,0.6,4
2016/9/10 3:14,1,11,1,12,1.1,3
2016/9/10 3:15,0.9,12,1,12,0.9,2
2016/9/10 3:16,0.9,13,0.9,12,1.1,1
2016/9/10 3:17,0.9,14,0.9,12,0.8,1
2016/9/10 3:18,0.7,15,0.8,12,0.1,16
2016/9/10 3:19,0.6,16,0.7,12,0,16
2016/9/10 3:20,0.4,16,0.6,12,0,16
2016/9/10 3:21,0.3,1,0.4,12,0.1,4
2016/9/10 3:22,0.4,1,0.4,12,1.4,2
2016/9/10 3:23,0.5,1,0.5,11,1.6,1
2016/9/10 3:24,0.5,1,0.5,11,1.8,16
2016/9/10 3:25,0.6,1,0.6,12,2.1,1
2016/9/10 3:26,0.6,1,0.6,13,1.5,16
2016/9/10 3:27,0.7,1,0.7,14,2.2,16
2016/9/10 3:28,0.9,1,0.9,1,2.5,16
2016/9/10 3:29,1.1,1,1.1,1,2.1,16
2016/9/10 3:30,1.1,1,1.1,1,1.6,16
2016/9/10 3:31,1.1,16,1.1,1,0.1,15
2016/9/10 3:32,1,16,1.1,1,0,12
2016/9/10 3:33,0.9,16,1,1,0.1,4
2016/9/10 3:34,0.9,16,0.9,1,1.5,2
2016/9/10 3:35,0.9,1,0.9,1,1.8,2
2016/9/10 3:36,0.9,1,0.9,1,1.9,2
2016/9/10 3:37,0.9,1,0.9,1,1.4,2
2016/9/10 3:38,0.8,1,0.8,1,1.1,2
2016/9/10 3:39,0.8,2,0.8,1,2.2,1
2016/9/10 3:40,0.8,2,0.8,1,2,1
2016/9/10 3:41,0.9,2,0.9,16,1.6,16
2016/9/10 3:42,1,1,1,16,1.5,15
2016/9/10 3:43,1,1,1,2,0.9,15
2016/9/10 3:44,1,1,1,2,0.5,1
2016/9/10 3:45,0.9,1,1,2,0.5,4
2016/9/10 3:46,0.8,1,0.9,2,1.3,2
2016/9/10 3:47,0.7,1,0.8,2,1,4
2016/9/10 3:48,0.6,1,0.7,2,0.1,1
2016/9/10 3:49,0.5,1,0.6,2,1,2
2016/9/10 3:50,0.4,1,0.5,2,1.4,2
2016/9/10 3:51,0.4,1,0.4,2,1.4,2
2016/9/10 3:52,0.5,1,0.5,1,1,2
2016/9/10 3:53,0.5,1,0.5,1,0.8,16
2016/9/10 3:54,0.5,1,0.5,1,0.4,16
2016/9/10 3:55,0.5,1,0.5,1,0,16
2016/9/10 3:56,0.5,1,0.5,1,1.1,11
2016/9/10 3:57,0.6,16,0.6,1,1.4,11
2016/9/10 3:58,0.6,16,0.6,1,1.1,11
2016/9/10 3:59,0.6,15,0.6,16,0.6,10
2016/9/10 4:00,0.5,15,0.6,16,0.1,16
2016/9/10 4:01,0.4,14,0.5,16,0.1,4
2016/9/10 4:02,0.3,12,0.4,16,0.5,8
2016/9/10 4:03,0.3,11,0.3,16,0.3,10
2016/9/10 4:04,0.3,10,0.3,16,0.1,10
2016/9/10 4:05,0.3,10,0.3,16,0.8,10
2016/9/10 4:06,0.3,10,0.3,16,0.6,9
2016/9/10 4:07,0.2,9,0.3,16,0.3,16
2016/9/10 4:08,0.1,9,0.2,16,0.5,16
2016/9/10 4:09,0.1,10,0.1,15,0.6,15
2016/9/10 4:10,0.1,11,0.1,15,0.5,12
2016/9/10 4:11,0.2,12,0.2,14,1,12
2016/9/10 4:12,0.3,12,0.3,12,1.3,12
2016/9/10 4:13,0.4,13,0.4,13,1.4,13
2016/9/10 4:14,0.5,13,0.5,13,1.6,14
2016/9/10 4:15,0.6,14,0.6,14,1.9,13
2016/9/10 4:16,0.7,14,0.7,14,1.6,13
2016/9/10 4:17,0.7,13,0.7,14,0.8,13
2016/9/10 4:18,0.8,13,0.8,13,3.1,6
2016/9/10 4:19,1,13,1,13,2.6,6
2016/9/10 4:20,1.2,12,1.2,12,2.2,6
2016/9/10 4:21,1.2,11,1.2,12,1.1,5
2016/9/10 4:22,1.1,8,1.1,12,0.4,5
2016/9/10 4:23,1,7,1.1,12,0.9,11
2016/9/10 4:24,1,7,1,12,1.6,9
2016/9/10 4:25,0.9,7,1,12,1.5,10
2016/9/10 4:26,0.9,7,0.9,12,1.4,8
2016/9/10 4:27,0.9,7,0.9,12,1.4,8
2016/9/10 4:28,0.8,7,0.9,12,0.8,8
2016/9/10 4:29,0.6,7,0.8,12,0.4,2
2016/9/10 4:30,0.5,6,0.6,12,1.4,1
2016/9/10 4:31,0.5,7,0.5,11,1.1,15
2016/9/10 4:32,0.6,7,0.6,8,2,16
2016/9/10 4:33,0.7,6,0.7,7,1.9,16
2016/9/10 4:34,0.7,1,0.7,7,1.5,16
2016/9/10 4:35,0.6,16,0.7,7,0.8,15
2016/9/10 4:36,0.6,15,0.7,7,0.8,14
2016/9/10 4:37,0.6,15,0.6,7,0.8,14
2016/9/10 4:38,0.5,15,0.6,7,0.6,8
2016/9/10 4:39,0.5,15,0.5,8,0.6,4
2016/9/10 4:40,0.5,15,0.5,8,0.6,5
2016/9/10 4:41,0.5,16,0.5,8,0.4,2
2016/9/10 4:42,0.4,16,0.5,8,0.1,2
2016/9/10 4:43,0.2,1,0.3,5,0,2
2016/9/10 4:44,0.2,2,0.2,1,0,2
2016/9/10 4:45,0.1,3,0.2,16,0.1,2
2016/9/10 4:46,0.1,3,0.1,15,0.1,2
2016/9/10 4:47,0.1,3,0.1,15,1.1,15
2016/9/10 4:48,0.1,2,0.1,15,0.8,15
2016/9/10 4:49,0.2,2,0.2,15,0.8,16
2016/9/10 4:50,0.2,2,0.2,15,1.4,1
2016/9/10 4:51,0.3,1,0.3,16,2,16
2016/9/10 4:52,0.4,1,0.4,1,2.4,16
2016/9/10 4:53,0.6,1,0.6,1,1.8,15
2016/9/10 4:54,0.7,16,0.7,16,1.5,15
2016/9/10 4:55,0.8,16,0.8,16,1.5,16
2016/9/10 4:56,0.9,16,0.9,16,1.6,16
2016/9/10 4:57,0.9,16,0.9,16,1.6,16
2016/9/10 4:58,0.9,16,0.9,16,1.1,16
2016/9/10 4:59,0.9,16,0.9,16,0.4,2
2016/9/10 5:00,0.9,16,0.9,16,0.6,16
2016/9/10 5:01,0.8,16,0.9,16,0.8,2
2016/9/10 5:02,0.7,1,0.8,16,0.8,2
2016/9/10 5:03,0.6,1,0.7,16,0,2
2016/9/10 5:04,0.5,1,0.6,16,0,2
2016/9/10 5:05,0.4,2,0.5,16,0,2
2016/9/10 5:06,0.3,2,0.4,16,0.4,9
2016/9/10 5:07,0.2,2,0.3,16,0.1,8
2016/9/10 5:08,0.2,3,0.2,16,0.5,7
2016/9/10 5:09,0.2,3,0.2,16,0.1,12
2016/9/10 5:10,0.1,2,0.2,16,0.4,15
2016/9/10 5:11,0.1,1,0.1,16,0.6,15
2016/9/10 5:12,0.1,16,0.1,1,0.8,14
2016/9/10 5:13,0.1,15,0.1,1,0.4,13
2016/9/10 5:14,0.1,15,0.1,1,0.5,1
2016/9/10 5:15,0.2,15,0.2,2,0.5,16
2016/9/10 5:16,0.2,15,0.2,2,0.8,1
2016/9/10 5:17,0.2,16,0.2,2,0,1
2016/9/10 5:18,0.2,16,0.2,3,0.3,16
2016/9/10 5:19,0.2,16,0.2,3,0.9,16
2016/9/10 5:20,0.2,16,0.2,15,0.8,16
2016/9/10 5:21,0.2,16,0.2,15,0.8,1
2016/9/10 5:22,0.2,16,0.2,15,0.5,16
2016/9/10 5:23,0.2,1,0.2,15,0.3,1
2016/9/10 5:24,0.2,1,0.2,15,0.4,4
2016/9/10 5:25,0.2,1,0.2,15,0.5,2
2016/9/10 5:26,0.2,1,0.2,15,0.3,16
2016/9/10 5:27,0.2,1,0.2,16,0.1,4
2016/9/10 5:28,0.2,1,0.2,16,0.3,2
2016/9/10 5:29,0.1,2,0.2,16,0.1,1
2016/9/10 5:30,0.1,2,0.1,16,0,1
2016/9/10 5:31,0.1,2,0.1,16,0.1,4
2016/9/10 5:32,0.1,2,0.1,16,1,3
2016/9/10 5:33,0.2,2,0.2,1,1.1,3
2016/9/10 5:34,0.2,2,0.2,1,0.1,3
2016/9/10 5:35,0.1,2,0.2,1,0,16
2016/9/10 5:36,0.1,2,0.1,1,0,16
2016/9/10 5:37,0.1,1,0.1,1,0,16
2016/9/10 5:38,0.1,1,0.1,1,0,16
2016/9/10 5:39,0.1,1,0.1,2,0,16
2016/9/10 5:40,0.1,1,0.1,2,0,16
2016/9/10 5:41,0.1,1,0.1,2,0,16
2016/9/10 5:42,0.1,1,0.1,2,0.1,16
2016/9/10 5:43,0,16,0.1,2,0.1,16
2016/9/10 5:44,0,16,0,2,0.1,5
2016/9/10 5:45,0,16,0,2,0.3,16
2016/9/10 5:46,0,16,0,2,0.1,10
2016/9/10 5:47,0,16,0,1,0.1,10
2016/9/10 5:48,0,16,0,1,0.1,15
2016/9/10 5:49,0,15,0,1,0.3,16
2016/9/10 5:50,0.1,15,0.1,1,1,16
2016/9/10 5:51,0.1,15,0.1,1,0.9,1
2016/9/10 5:52,0.2,15,0.2,15,0.9,1
2016/9/10 5:53,0.2,15,0.2,15,0.3,15
2016/9/10 5:54,0.2,15,0.2,15,0.8,9
2016/9/10 5:55,0.2,14,0.2,15,0.6,10
2016/9/10 5:56,0.2,14,0.2,15,0.8,8
2016/9/10 5:57,0.3,14,0.3,14,0.8,8
2016/9/10 5:58,0.3,13,0.3,14,0,8
2016/9/10 5:59,0.3,10,0.3,14,0.3,9
2016/9/10 6:00,0.2,10,0.3,14,0.6,9
2016/9/10 6:01,0.3,9,0.3,14,1,9
2016/9/10 6:02,0.3,9,0.3,14,1.1,9
2016/9/10 6:03,0.3,9,0.3,14,1.1,9
2016/9/10 6:04,0.5,9,0.5,9,1.6,9
2016/9/10 6:05,0.5,9,0.5,9,1.4,8
2016/9/10 6:06,0.6,9,0.6,9,1.4,8
2016/9/10 6:07,0.6,9,0.6,9,1,8
2016/9/10 6:08,0.8,9,0.8,9,1.4,8
2016/9/10 6:09,0.9,9,0.9,9,1.5,9
2016/9/10 6:10,0.9,9,0.9,9,1.5,9
2016/9/10 6:11,0.9,9,0.9,9,1.4,9
2016/9/10 6:12,1,9,1,9,1.1,10
2016/9/10 6:13,1,9,1,9,0.9,12
2016/9/10 6:14,0.9,9,1,9,0.8,12
2016/9/10 6:15,0.8,10,0.9,9,0.6,14
2016/9/10 6:16,0.7,10,0.8,9,0.9,16
2016/9/10 6:17,0.7,11,0.7,9,0.6,16
2016/9/10 6:18,0.6,12,0.7,9,0.8,2
2016/9/10 6:19,0.6,13,0.6,9,1,1
2016/9/10 6:20,0.5,14,0.6,9,0.9,2
2016/9/10 6:21,0.5,15,0.5,9,0.8,1
2016/9/10 6:22,0.5,16,0.5,9,1.1,3
2016/9/10 6:23,0.5,1,0.5,9,1.1,5
2016/9/10 6:24,0.5,2,0.5,9,1.3,5
2016/9/10 6:25,0.5,3,0.5,10,1.1,4
2016/9/10 6:26,0.6,3,0.6,10,1.4,3
2016/9/10 6:27,0.7,3,0.7,11,1.5,3
2016/9/10 6:28,0.8,3,0.8,3,1.4,3
2016/9/10 6:29,0.8,3,0.8,3,1.3,2
2016/9/10 6:30,0.8,3,0.8,3,1,2
2016/9/10 6:31,0.9,3,0.9,3,1,3
2016/9/10 6:32,0.9,4,0.9,3,0.9,4
2016/9/10 6:33,0.9,4,0.9,3,0.9,4
2016/9/10 6:34,0.9,4,0.9,3,1.6,5
2016/9/10 6:35,0.9,4,0.9,3,1.6,5
2016/9/10 6:36,1,4,1,4,1.6,5
2016/9/10 6:37,0.9,4,0.9,4,1.1,5
2016/9/10 6:38,0.9,4,0.9,4,1.1,4
2016/9/10 6:39,0.8,4,0.9,4,0.8,3
2016/9/10 6:40,0.8,4,0.8,4,0.5,3
2016/9/10 6:41,0.7,4,0.8,4,0.1,4
2016/9/10 6:42,0.7,4,0.7,4,0,5
2016/9/10 6:43,0.6,4,0.6,4,0,5
2016/9/10 6:44,0.5,4,0.6,4,0,1
2016/9/10 6:45,0.4,3,0.5,4,0.1,16
2016/9/10 6:46,0.2,3,0.4,4,0.3,15
2016/9/10 6:47,0.2,2,0.2,4,0.6,14
2016/9/10 6:48,0.1,1,0.2,4,0.5,14
2016/9/10 6:49,0.1,16,0.1,4,0,14
2016/9/10 6:50,0.1,15,0.1,4,0,11
2016/9/10 6:51,0.1,14,0.1,4,0,9
2016/9/10 6:52,0.1,14,0.1,4,0.1,16
2016/9/10 6:53,0.1,14,0.1,4,0.4,16
2016/9/10 6:54,0.1,14,0.1,4,0.3,16
2016/9/10 6:55,0.1,14,0.1,3,0.1,1
2016/9/10 6:56,0.1,15,0.1,3,0.1,3
2016/9/10 6:57,0,16,0.1,2,0.1,3
2016/9/10 6:58,0,1,0,1,0.4,1
2016/9/10 6:59,0,2,0,15,0.5,3
2016/9/10 7:00,0.1,2,0.1,14,0.9,2
2016/9/10 7:01,0.2,2,0.2,2,1,2
2016/9/10 7:02,0.2,2,0.2,2,0.9,2
2016/9/10 7:03,0.2,2,0.2,2,0.6,2
2016/9/10 7:04,0.2,2,0.2,2,0.3,2
2016/9/10 7:05,0.2,2,0.2,2,0.1,9
2016/9/10 7:06,0.3,2,0.3,2,1,4
2016/9/10 7:07,0.3,2,0.3,2,1.3,2
2016/9/10 7:08,0.4,2,0.4,2,1.3,2
2016/9/10 7:09,0.5,2,0.5,2,1.5,3
2016/9/10 7:10,0.6,2,0.6,2,1.4,2
2016/9/10 7:11,0.6,2,0.6,2,1,2
2016/9/10 7:12,0.6,2,0.6,2,0.8,3
2016/9/10 7:13,0.5,3,0.6,2,0.5,5
2016/9/10 7:14,0.6,3,0.6,2,0.8,5
2016/9/10 7:15,0.6,3,0.6,2,1.5,9
2016/9/10 7:16,0.6,3,0.6,2,1.3,8
2016/9/10 7:17,0.7,4,0.7,4,1.5,8
2016/9/10 7:18,0.7,5,0.7,4,1.8,8
2016/9/10 7:19,0.7,6,0.7,4,2.1,8
2016/9/10 7:20,0.7,6,0.7,4,2.1,10
2016/9/10 7:21,0.7,7,0.7,4,1.9,9
2016/9/10 7:22,0.8,8,0.8,7,1.8,9
2016/9/10 7:23,0.9,8,0.9,8,1.1,9
2016/9/10 7:24,0.9,9,0.9,8,1.1,9
2016/9/10 7:25,0.8,9,0.9,8,0.4,11
2016/9/10 7:26,0.8,9,0.8,8,0,11
2016/9/10 7:27,0.7,10,0.8,8,0,11
2016/9/10 7:28,0.6,10,0.7,8,0,11
2016/9/10 7:29,0.5,10,0.6,8,0.1,11
2016/9/10 7:30,0.4,10,0.5,8,0,11
2016/9/10 7:31,0.3,10,0.4,8,0,10
2016/9/10 7:32,0.2,10,0.3,8,0.3,9
2016/9/10 7:33,0.1,10,0.2,8,0.4,9
2016/9/10 7:34,0,10,0.1,9,0.8,8
2016/9/10 7:35,0.1,10,0.1,9,0.9,9
2016/9/10 7:36,0.2,10,0.2,9,0.9,10
2016/9/10 7:37,0.2,9,0.2,10,1,8
2016/9/10 7:38,0.3,9,0.3,10,0.9,8
2016/9/10 7:39,0.3,8,0.3,10,0.3,7
2016/9/10 7:40,0.3,8,0.3,10,0.4,4
2016/9/10 7:41,0.3,8,0.3,10,0.8,7
2016/9/10 7:42,0.4,7,0.4,7,1,5
2016/9/10 7:43,0.4,7,0.4,7,1,8
2016/9/10 7:44,0.4,7,0.4,7,1.1,8
2016/9/10 7:45,0.4,7,0.4,7,0.4,8
2016/9/10 7:46,0.3,6,0.4,7,0.1,3
2016/9/10 7:47,0.3,6,0.3,7,0.1,4
2016/9/10 7:48,0.2,6,0.3,7,0,15
2016/9/10 7:49,0.2,6,0.2,7,0.3,15
2016/9/10 7:50,0.2,6,0.2,7,0.5,9
2016/9/10 7:51,0.2,7,0.2,7,0.8,10
2016/9/10 7:52,0.2,8,0.2,7,1,10
2016/9/10 7:53,0.2,8,0.3,7,1.1,8
2016/9/10 7:54,0.3,9,0.3,7,1.4,8
2016/9/10 7:55,0.4,9,0.4,7,1.9,9
2016/9/10 7:56,0.6,9,0.6,9,2,7
2016/9/10 7:57,0.6,9,0.6,9,2,9
2016/9/10 7:58,0.8,9,0.8,9,2.5,9
2016/9/10 7:59,1,9,1,9,3,8
2016/9/10 8:00,1.1,9,1.1,9,3.2,9
2016/9/10 8:01,1.3,9,1.3,9,3,8
2016/9/10 8:02,1.5,9,1.5,9,3,8
2016/9/10 8:03,1.6,9,1.6,9,2.6,8
2016/9/10 8:04,1.7,9,1.7,9,2.6,8
2016/9/10 8:05,1.7,9,1.7,9,2.6,8
2016/9/10 8:06,1.7,9,1.7,9,2.2,9
2016/9/10 8:07,1.7,9,1.7,9,2,9
2016/9/10 8:08,1.6,9,1.7,9,2,8
2016/9/10 8:09,1.6,9,1.6,9,2.6,9
2016/9/10 8:10,1.6,9,1.6,9,2.6,8
2016/9/10 8:11,1.6,9,1.6,9,3.1,8
2016/9/10 8:12,1.6,9,1.6,9,2.7,9
2016/9/10 8:13,1.5,9,1.6,9,2.9,8
2016/9/10 8:14,1.4,9,1.5,9,2.7,9
2016/9/10 8:15,1.4,9,1.4,9,3.8,9
2016/9/10 8:16,1.5,9,1.5,9,3,9
2016/9/10 8:17,1.6,9,1.6,9,3.5,9
2016/9/10 8:18,1.7,9,1.7,9,3.8,8
2016/9/10 8:19,1.8,9,1.8,9,3,10
2016/9/10 8:20,1.8,9,1.8,9,3.6,8
2016/9/10 8:21,1.8,9,1.8,9,3.5,9
2016/9/10 8:22,1.8,9,1.8,9,2.6,8
2016/9/10 8:23,1.9,9,1.9,9,3.3,9
2016/9/10 8:24,1.9,9,1.9,9,3.3,9
2016/9/10 8:25,2,9,2,9,3.5,9
2016/9/10 8:26,2,9,2,9,3,9
2016/9/10 8:27,2,9,2.1,9,2.9,10
2016/9/10 8:28,2,9,2,9,2.7,9
2016/9/10 8:29,1.9,9,2,9,1.9,8
2016/9/10 8:30,1.8,9,1.9,9,1.9,8
2016/9/10 8:31,1.7,9,1.8,9,1.5,11
2016/9/10 8:32,1.6,9,1.7,9,2.2,8
2016/9/10 8:33,1.6,9,1.7,9,2.5,8
2016/9/10 8:34,1.6,9,1.6,9,2.2,8
2016/9/10 8:35,1.5,9,1.6,9,2.7,9
2016/9/10 8:36,1.4,9,1.5,9,2.6,9
2016/9/10 8:37,1.4,9,1.4,9,3.1,9
2016/9/10 8:38,1.3,9,1.4,9,2.5,9
2016/9/10 8:39,1.3,9,1.3,9,1.8,9
2016/9/10 8:40,1.3,9,1.3,9,2.5,8
2016/9/10 8:41,1.4,9,1.4,9,2.5,9
2016/9/10 8:42,1.4,9,1.4,9,2.4,8
2016/9/10 8:43,1.3,9,1.4,9,2.5,9
2016/9/10 8:44,1.2,9,1.2,9,2.7,10
2016/9/10 8:45,1.2,10,1.3,9,2.9,11
2016/9/10 15:15,1.6,16,1.6,16,1.6,16
2016/9/10 15:16,2.2,16,2.2,16,2.7,16
2016/9/10 15:17,1.6,15,2,16,2.4,16
2016/9/10 15:18,1.4,15,1.5,16,1.8,16
2016/9/10 15:19,1.5,15,1.5,16,2.9,16
2016/9/10 15:20,1.5,15,1.5,16,3,14
2016/9/10 15:21,1.4,15,1.5,16,2.5,16
2016/9/10 15:22,1.5,15,1.5,16,3.2,16
2016/9/10 15:23,1.6,15,1.6,16,2.4,16
2016/9/10 15:24,1.6,16,1.6,16,2.7,16
2016/9/10 15:25,1.6,16,1.6,16,2.7,15
2016/9/10 15:26,1.6,16,1.7,15,2.9,15
2016/9/10 15:27,1.8,16,1.8,15,4.4,16
2016/9/10 15:28,1.9,16,1.9,16,2.5,16
2016/9/10 15:29,2,16,2,16,4.7,16
2016/9/10 15:30,2,16,2,16,3.1,16
2016/9/10 15:31,2.1,16,2.1,16,2.2,15
2016/9/10 15:32,2,16,2.1,16,3.5,16
2016/9/10 15:33,2.1,16,2.1,16,3.7,16
2016/9/10 15:34,2.3,15,2.3,15,6.3,15
2016/9/10 15:35,2.6,15,2.6,15,6.5,15
2016/9/10 15:36,2.8,15,2.8,15,5.8,14
2016/9/10 15:37,2.8,15,2.8,15,5.2,16
2016/9/10 15:38,3,15,3,15,5.4,14
2016/9/10 15:39,3.2,15,3.2,15,5.2,15
2016/9/10 15:40,3.3,15,3.3,15,5.1,14
2016/9/10 15:41,3.4,15,3.5,15,4.8,15
2016/9/10 15:42,3.5,15,3.5,15,3.3,15
2016/9/10 15:43,3.4,15,3.5,15,3.2,15
2016/9/10 15:44,3.1,15,3.4,15,2.7,1
2016/9/10 15:45,2.9,15,3.1,15,5.1,15
2016/9/10 15:46,3,15,3,15,6.1,14
2016/9/10 15:47,2.9,15,3,15,6.7,16
2016/9/10 15:48,2.7,15,2.9,15,3.7,16
2016/9/10 15:49,2.6,15,2.7,15,5.8,15
2016/9/10 15:50,2.7,15,2.7,15,6.4,15
2016/9/10 15:51,2.8,15,2.8,15,6.7,16
2016/9/10 15:52,2.9,15,2.9,15,5.7,15
2016/9/10 15:53,3,15,3,15,5.5,16
2016/9/10 15:54,3.2,15,3.2,15,4.7,16
2016/9/10 15:55,3.3,15,3.3,15,6.3,16
2016/9/10 15:56,3.2,15,3.2,15,5.6,16
2016/9/10 15:57,3.2,15,3.2,15,3.8,15
2016/9/10 15:58,3.4,15,3.4,15,6,16
2016/9/10 15:59,3.5,15,3.5,15,5.8,16
2016/9/10 16:00,3.5,15,3.5,15,6.1,1
2016/9/10 16:01,3.3,15,3.5,15,5.8,15
2016/9/10 16:02,3.3,15,3.3,15,6.7,16
2016/9/10 16:03,3.3,15,3.3,15,3.9,15
2016/9/10 16:04,3.3,15,3.3,15,3.2,16
2016/9/10 16:05,3.1,15,3.2,15,5.1,16
2016/9/10 16:06,3.1,15,3.2,15,5.5,16
2016/9/10 16:07,3.2,15,3.2,15,5.6,16
2016/9/10 16:08,3.2,15,3.3,15,4.9,15
2016/9/10 16:09,3.1,15,3.2,15,5,16
2016/9/10 16:10,3.1,15,3.1,15,4.2,15
2016/9/10 16:11,3.1,15,3.2,15,3.8,1
2016/9/10 16:12,3,15,3,15,6.4,16
2016/9/10 16:13,3.2,15,3.2,15,6,15
2016/9/10 16:14,3.3,15,3.3,15,4.9,15
2016/9/10 16:15,3.3,15,3.3,15,4.7,15
2016/9/10 16:16,3.2,15,3.3,15,3.7,15
2016/9/10 16:17,3,15,3.2,15,3,15
2016/9/10 16:18,2.8,15,3,15,3.1,16
2016/9/10 16:19,2.8,15,2.8,15,4.8,14
2016/9/10 16:20,2.7,15,2.8,15,3.7,15
2016/9/10 16:21,2.7,15,2.7,15,5.7,16
2016/9/10 16:22,2.8,15,2.8,15,7.1,15
2016/9/10 16:23,2.8,15,2.8,15,5.7,15
2016/9/10 16:24,3,15,3,15,6.4,15
2016/9/10 16:25,3.1,15,3.1,15,6,15
2016/9/10 16:26,3.1,15,3.1,15,4.7,1
2016/9/10 16:27,3.3,15,3.3,15,6.2,16
2016/9/10 16:28,3.4,15,3.4,15,4.5,15
2016/9/10 16:29,3.4,15,3.4,15,4.8,15
2016/9/10 16:30,3.4,15,3.4,15,4.3,16
2016/9/10 16:31,3.4,15,3.5,15,4.7,16
2016/9/10 16:32,3.2,15,3.4,15,3.5,1
2016/9/10 16:33,2.9,16,3.2,15,3,16
2016/9/10 16:34,2.8,16,2.9,15,4.3,1
2016/9/10 16:35,2.7,16,2.7,15,4.4,16
2016/9/10 16:36,2.8,16,2.8,15,4.8,16
2016/9/10 16:37,2.6,16,2.8,15,3.7,1
2016/9/10 16:38,2.5,16,2.6,15,3.5,1
2016/9/10 16:39,2.6,16,2.6,15,4.8,16
2016/9/10 16:40,2.6,16,2.6,15,4.7,15
2016/9/10 16:41,2.8,16,2.8,15,5.2,1
2016/9/10 16:42,2.9,16,2.9,15,5.4,16
2016/9/10 16:43,3,16,3,16,3.7,16
2016/9/10 16:44,3,16,3,16,5.6,1
2016/9/10 16:45,3.1,16,3.1,16,6.7,15
2016/9/10 16:46,3.1,16,3.1,16,4.8,16
2016/9/10 16:47,3.2,16,3.2,16,4.4,16
2016/9/10 16:48,3.3,16,3.3,16,4.4,1
2016/9/10 16:49,3.3,16,3.4,16,4.4,16
2016/9/10 16:50,3.2,16,3.3,16,3.7,16
2016/9/10 16:51,3,16,3.2,16,3.2,2
2016/9/10 16:52,2.9,16,3,16,3.3,1
2016/9/10 16:53,2.8,16,2.9,16,3.7,15
2016/9/10 16:54,2.8,16,2.9,16,3.6,16
2016/9/10 16:55,2.5,16,2.8,16,3.2,16
2016/9/10 16:56,2.4,16,2.5,16,3,2
2016/9/10 16:57,2.4,16,2.4,16,4.7,16
2016/9/10 16:58,2.3,16,2.4,16,4.3,16
2016/9/10 16:59,2.3,16,2.3,16,3.7,15
2016/9/10 17:00,2.3,16,2.3,16,5,16
2016/9/10 17:01,2.5,16,2.5,16,5,16
2016/9/10 17:02,2.6,16,2.6,16,4.8,16
2016/9/10 17:03,2.6,16,2.6,16,4.4,16
2016/9/10 17:04,2.5,16,2.6,16,2.2,16
2016/9/10 17:05,2.6,16,2.6,16,3.9,15
2016/9/10 17:06,2.7,16,2.7,16,4.3,16
2016/9/10 17:07,2.7,16,2.7,16,4.9,1
2016/9/10 17:08,2.6,16,2.7,16,2.5,2
2016/9/10 17:09,2.5,16,2.6,16,3.8,15
2016/9/10 17:10,2.4,16,2.5,16,3.2,16
2016/9/10 17:11,2.3,16,2.3,16,4.4,16
2016/9/10 17:12,2.3,16,2.3,16,4.4,16
2016/9/10 17:13,2.2,16,2.3,16,3.7,15
2016/9/10 17:14,2.3,16,2.3,16,3.7,15
2016/9/10 17:15,2.3,16,2.3,16,4.7,16
2016/9/10 17:16,2.2,16,2.3,16,2.9,15
2016/9/10 17:17,1.9,16,2.2,16,1.5,16
2016/9/10 17:18,1.9,16,2,16,3.5,16
2016/9/10 17:19,2,16,2,16,3.8,14
2016/9/10 17:20,2.1,15,2.1,16,4.9,16
2016/9/10 17:21,2.1,15,2.2,16,3.2,1
2016/9/10 17:22,1.9,15,2.1,16,2,16
2016/9/10 17:23,2,15,2,16,5.4,1
2016/9/10 17:24,2,15,2,16,6.3,15
2016/9/10 17:25,2,15,2,16,5.1,16
2016/9/10 17:26,2.1,15,2.1,16,6.9,16
2016/9/10 17:27,2.3,16,2.3,16,3.8,1
2016/9/10 17:28,2.4,16,2.4,16,4.2,2
2016/9/10 17:29,2.3,16,2.4,16,2.2,16
2016/9/10 17:30,2.1,16,2.3,16,2.1,16
2016/9/10 17:31,2,16,2.1,16,2.7,15
2016/9/10 17:32,1.9,15,2,16,0.9,14
2016/9/10 17:33,1.8,15,1.9,16,1.9,14
2016/9/10 17:34,1.7,15,1.8,16,1.9,16
2016/9/10 17:35,1.7,15,1.7,16,3.3,14
2016/9/10 17:36,1.6,15,1.6,16,3.9,16
2016/9/10 17:37,1.5,15,1.6,16,4.3,15
2016/9/10 17:38,1.4,15,1.5,16,2.7,16
2016/9/10 17:39,1.5,15,1.5,16,4.5,16
2016/9/10 17:40,1.7,15,1.7,16,6.3,15
2016/9/10 17:41,2,16,2,16,5.8,15
2016/9/10 17:42,2.2,16,2.2,16,3.7,16
2016/9/10 17:43,2.3,16,2.3,16,3.8,1
2016/9/10 17:44,2.5,16,2.5,16,3.6,1
2016/9/10 17:45,2.6,16,2.6,16,5.2,15